WLF443 CYVR-KDEN

Flight info

Callsign WLF443
Flight time 2h 11m
Altitude 35000
Route SQURL DCT GEG DCT DLN DCT TOFUU FLATI5
Aircraft B77L/H-SDE1E2E3FGHIJ2J3J4J5M1RWXY/LB1D1

Departure

Time 2026-05-05 17:40
Airport Vancouver International Airport (CYVR)

Arrival

Time 2026-05-05 19:51
Airport Denver International Airport (KDEN)
Time Latitude Longitude Altitude Speed Heading
2026-05-05 16:41 49.20356 -123.16118 14 ft 0 kts 11°
2026-05-05 17:27 49.20349 -123.16120 15 ft 3 kts 11°
2026-05-05 17:27 49.20327 -123.16123 15 ft 4 kts 333°
2026-05-05 17:28 49.20315 -123.16096 14 ft 4 kts 278°
2026-05-05 17:28 49.20313 -123.16073 14 ft 1 kts 280°
2026-05-05 17:32 49.20310 -123.16093 14 ft 7 kts 249°
2026-05-05 17:32 49.20233 -123.16126 14 ft 14 kts 188°
2026-05-05 17:32 49.20123 -123.16153 15 ft 18 kts 189°
2026-05-05 17:32 49.19984 -123.16189 14 ft 22 kts 189°
2026-05-05 17:33 49.19873 -123.16281 14 ft 19 kts 260°
2026-05-05 17:33 49.19893 -123.16483 14 ft 19 kts 281°
2026-05-05 17:33 49.19917 -123.16683 14 ft 19 kts 278°
2026-05-05 17:33 49.19939 -123.16897 14 ft 24 kts 279°
2026-05-05 17:34 49.19972 -123.17200 14 ft 34 kts 280°
2026-05-05 17:34 49.20019 -123.17601 14 ft 40 kts 281°
2026-05-05 17:34 49.20065 -123.18001 14 ft 36 kts 280°
2026-05-05 17:34 49.20107 -123.18354 14 ft 32 kts 279°
2026-05-05 17:35 49.20143 -123.18671 14 ft 30 kts 280°
2026-05-05 17:35 49.20180 -123.18985 14 ft 30 kts 279°
2026-05-05 17:35 49.20215 -123.19299 14 ft 30 kts 280°
2026-05-05 17:35 49.20251 -123.19611 15 ft 30 kts 279°
2026-05-05 17:36 49.20284 -123.19921 14 ft 29 kts 279°
2026-05-05 17:36 49.20372 -123.20122 14 ft 19 kts 341°
2026-05-05 17:36 49.20394 -123.20127 14 ft 0 kts 359°
2026-05-05 17:37 49.20397 -123.20127 14 ft 2 kts 359°
2026-05-05 17:37 49.20429 -123.20122 14 ft 0 kts 10°
2026-05-05 17:38 49.20431 -123.20121 14 ft 1 kts 10°
2026-05-05 17:38 49.20474 -123.20105 14 ft 12 kts 20°
2026-05-05 17:38 49.20508 -123.20000 14 ft 3 kts 96°
2026-05-05 17:39 49.20500 -123.19914 14 ft 24 kts 99°
2026-05-05 17:39 49.20427 -123.19280 13 ft 96 kts 99°
2026-05-05 17:39 49.20276 -123.17950 12 ft 155 kts 100°
2026-05-05 17:39 49.20074 -123.16173 324 ft 173 kts 101°
2026-05-05 17:40 49.19863 -123.14351 995 ft 177 kts 101°
2026-05-05 17:40 49.19606 -123.12458 1512 ft 185 kts 105°
2026-05-05 17:40 49.19349 -123.10483 2038 ft 193 kts 101°
2026-05-05 17:40 49.19142 -123.08427 2628 ft 196 kts 99°
2026-05-05 17:41 49.18961 -123.06319 3090 ft 208 kts 97°
2026-05-05 17:41 49.18791 -123.04046 3510 ft 221 kts 96°
2026-05-05 17:41 49.18640 -123.01612 3858 ft 238 kts 98°
2026-05-05 17:41 49.18198 -122.99114 4090 ft 258 kts 122°
2026-05-05 17:42 49.17030 -122.96994 4578 ft 266 kts 134°
2026-05-05 17:42 49.15766 -122.94890 5000 ft 272 kts 131°
2026-05-05 17:42 49.14516 -122.92678 4992 ft 276 kts 130°
2026-05-05 17:42 49.13273 -122.90442 5008 ft 276 kts 130°
2026-05-05 17:43 49.12040 -122.88226 5020 ft 271 kts 130°
2026-05-05 17:43 49.10834 -122.86063 5237 ft 267 kts 130°
2026-05-05 17:43 49.09615 -122.83878 5506 ft 273 kts 130°
2026-05-05 17:43 49.08374 -122.81652 5902 ft 276 kts 130°
2026-05-05 17:44 49.07119 -122.79402 6636 ft 281 kts 130°
2026-05-05 17:44 49.05845 -122.77122 7339 ft 285 kts 130°
2026-05-05 17:44 49.04551 -122.74805 8058 ft 288 kts 130°
2026-05-05 17:44 49.03246 -122.72471 8796 ft 291 kts 130°
2026-05-05 17:45 49.01916 -122.70104 9471 ft 298 kts 130°
2026-05-05 17:45 49.00564 -122.67689 10171 ft 301 kts 129°
2026-05-05 17:45 48.99169 -122.65198 10550 ft 320 kts 129°
2026-05-05 17:45 48.97666 -122.62523 10728 ft 345 kts 129°
2026-05-05 17:46 48.96061 -122.59640 10912 ft 369 kts 127°
2026-05-05 17:46 48.94585 -122.56347 11345 ft 383 kts 118°
2026-05-05 17:46 48.93375 -122.52691 12023 ft 390 kts 110°
2026-05-05 17:46 48.92381 -122.48826 12900 ft 394 kts 108°
2026-05-05 17:47 48.91406 -122.44907 13744 ft 399 kts 108°
2026-05-05 17:47 48.90425 -122.40935 14527 ft 404 kts 107°
2026-05-05 17:47 48.89429 -122.36915 15312 ft 408 kts 107°
2026-05-05 17:47 48.88417 -122.32864 16088 ft 412 kts 107°
2026-05-05 17:48 48.87387 -122.28766 16826 ft 418 kts 107°
2026-05-05 17:48 48.86339 -122.24616 17547 ft 423 kts 107°
2026-05-05 17:48 48.85275 -122.20418 18253 ft 429 kts 107°
2026-05-05 17:48 48.84194 -122.16173 18895 ft 433 kts 106°
2026-05-05 17:49 48.83102 -122.11889 19546 ft 437 kts 107°
2026-05-05 17:49 48.81994 -122.07569 20180 ft 442 kts 107°
2026-05-05 17:49 48.80870 -122.03208 20795 ft 447 kts 107°
2026-05-05 17:49 48.79731 -121.98796 21358 ft 451 kts 107°
2026-05-05 17:50 48.78586 -121.94338 21948 ft 457 kts 107°
2026-05-05 17:50 48.77425 -121.89831 22504 ft 462 kts 107°
2026-05-05 17:50 48.76250 -121.85274 23075 ft 466 kts 107°
2026-05-05 17:50 48.75061 -121.80679 23672 ft 470 kts 107°
2026-05-05 17:51 48.73860 -121.76048 24217 ft 474 kts 107°
2026-05-05 17:51 48.72649 -121.71392 24765 ft 477 kts 107°
2026-05-05 17:51 48.71427 -121.66709 25276 ft 480 kts 107°
2026-05-05 17:51 48.70194 -121.61991 25793 ft 483 kts 107°
2026-05-05 17:52 48.68952 -121.57252 26325 ft 486 kts 107°
2026-05-05 17:52 48.67700 -121.52475 26834 ft 490 kts 107°
2026-05-05 17:52 48.66436 -121.47670 27327 ft 493 kts 107°
2026-05-05 17:52 48.65162 -121.42833 27814 ft 497 kts 107°
2026-05-05 17:53 48.63877 -121.37966 28253 ft 500 kts 107°
2026-05-05 17:53 48.62584 -121.33075 28709 ft 503 kts 108°
2026-05-05 17:53 48.61279 -121.28152 29167 ft 506 kts 108°
2026-05-05 17:53 48.59965 -121.23199 29618 ft 509 kts 107°
2026-05-05 17:54 48.58648 -121.18249 30180 ft 507 kts 108°
2026-05-05 17:54 48.57332 -121.13319 30742 ft 505 kts 108°
2026-05-05 17:54 48.56016 -121.08401 31171 ft 505 kts 108°
2026-05-05 17:54 48.54717 -121.03555 31560 ft 506 kts 108°
2026-05-05 17:55 48.53379 -120.98574 32039 ft 504 kts 108°
2026-05-05 17:55 48.52062 -120.93678 32497 ft 504 kts 108°
2026-05-05 17:55 48.50758 -120.88842 32839 ft 505 kts 108°
2026-05-05 17:55 48.49414 -120.83864 33204 ft 506 kts 108°
2026-05-05 17:56 48.48089 -120.78971 33762 ft 503 kts 107°
2026-05-05 17:56 48.46766 -120.74097 34286 ft 501 kts 107°
2026-05-05 17:56 48.45464 -120.69309 34672 ft 501 kts 107°
2026-05-05 17:56 48.44139 -120.64441 34884 ft 504 kts 107°
2026-05-05 17:57 48.42804 -120.59531 34941 ft 509 kts 107°
2026-05-05 17:57 48.40110 -120.49687 34976 ft 506 kts 107°
2026-05-05 17:58 48.37436 -120.39979 34969 ft 500 kts 107°
2026-05-05 17:58 48.34765 -120.30309 34987 ft 501 kts 107°
2026-05-05 17:59 48.32088 -120.20639 34970 ft 501 kts 107°
2026-05-05 17:59 48.29394 -120.10959 34966 ft 502 kts 107°
2026-05-05 18:00 48.26697 -120.01306 34977 ft 502 kts 107°
2026-05-05 18:00 48.23986 -119.91642 34975 ft 503 kts 107°
2026-05-05 18:01 48.21265 -119.81981 34976 ft 503 kts 107°
2026-05-05 18:01 48.18530 -119.72316 34968 ft 503 kts 107°
2026-05-05 18:02 48.15792 -119.62673 34971 ft 503 kts 107°
2026-05-05 18:02 48.13063 -119.53098 34967 ft 503 kts 107°
2026-05-05 18:03 48.10306 -119.43467 34980 ft 503 kts 107°
2026-05-05 18:03 48.07542 -119.33854 34980 ft 503 kts 107°
2026-05-05 18:04 48.04768 -119.24237 34970 ft 504 kts 107°
2026-05-05 18:04 48.01985 -119.14624 34977 ft 504 kts 107°
2026-05-05 18:05 47.99190 -119.05020 34982 ft 504 kts 107°
2026-05-05 18:05 47.96385 -118.95412 34977 ft 505 kts 107°
2026-05-05 18:06 47.93575 -118.85828 34983 ft 504 kts 107°
2026-05-05 18:06 47.90757 -118.76249 34975 ft 505 kts 107°
2026-05-05 18:07 47.87931 -118.66679 34997 ft 505 kts 107°
2026-05-05 18:07 47.85088 -118.57101 34989 ft 506 kts 107°
2026-05-05 18:08 47.82241 -118.47538 34992 ft 505 kts 107°
2026-05-05 18:08 47.79406 -118.38049 34987 ft 505 kts 107°
2026-05-05 18:09 47.76546 -118.28519 34979 ft 505 kts 107°
2026-05-05 18:09 47.73681 -118.19003 34989 ft 505 kts 107°
2026-05-05 18:10 47.70804 -118.09491 34992 ft 505 kts 107°
2026-05-05 18:10 47.67922 -117.99994 35000 ft 504 kts 107°
2026-05-05 18:11 47.65034 -117.90514 35040 ft 504 kts 107°
2026-05-05 18:11 47.62138 -117.81038 35019 ft 505 kts 107°
2026-05-05 18:12 47.59227 -117.71554 35019 ft 505 kts 107°
2026-05-05 18:12 47.56259 -117.62107 35020 ft 508 kts 110°
2026-05-05 18:13 47.52602 -117.53065 35008 ft 513 kts 115°
2026-05-05 18:13 47.48796 -117.44128 35021 ft 513 kts 115°
2026-05-05 18:14 47.45007 -117.35188 35002 ft 514 kts 115°
2026-05-05 18:14 47.41231 -117.26223 35000 ft 514 kts 115°
2026-05-05 18:15 47.37486 -117.17336 35003 ft 513 kts 115°
2026-05-05 18:15 47.33708 -117.08394 35005 ft 514 kts 114°
2026-05-05 18:16 47.29913 -116.99444 35016 ft 515 kts 115°
2026-05-05 18:16 47.26106 -116.90503 35003 ft 516 kts 115°
2026-05-05 18:17 47.22288 -116.81569 35002 ft 516 kts 115°
2026-05-05 18:17 47.18459 -116.72634 34994 ft 516 kts 115°
2026-05-05 18:18 47.14625 -116.63713 34970 ft 516 kts 115°
2026-05-05 18:18 47.11434 -116.56316 34963 ft 516 kts 115°
2026-05-05 18:19 47.07591 -116.47429 34938 ft 515 kts 115°
2026-05-05 18:19 47.03745 -116.38559 34951 ft 515 kts 115°
2026-05-05 18:20 46.99884 -116.29695 34965 ft 516 kts 115°
2026-05-05 18:20 46.96012 -116.20828 34938 ft 517 kts 115°
2026-05-05 18:21 46.92128 -116.11961 34936 ft 517 kts 115°
2026-05-05 18:21 46.88238 -116.03112 34910 ft 517 kts 115°
2026-05-05 18:22 46.84344 -115.94279 34908 ft 517 kts 115°
2026-05-05 18:22 46.80453 -115.85489 34939 ft 515 kts 115°
2026-05-05 18:23 46.76557 -115.76703 34952 ft 516 kts 115°
2026-05-05 18:23 46.72656 -115.67933 34943 ft 516 kts 115°
2026-05-05 18:24 46.68767 -115.59229 34937 ft 516 kts 115°
2026-05-05 18:24 46.64815 -115.50410 34981 ft 518 kts 115°
2026-05-05 18:25 46.60900 -115.41691 34968 ft 518 kts 115°
2026-05-05 18:25 46.56921 -115.32862 34974 ft 519 kts 115°
2026-05-05 18:26 46.52983 -115.24159 34965 ft 519 kts 115°
2026-05-05 18:26 46.49016 -115.15412 34974 ft 519 kts 115°
2026-05-05 18:27 46.45036 -115.06671 34984 ft 520 kts 115°
2026-05-05 18:27 46.41040 -114.97915 34984 ft 521 kts 115°
2026-05-05 18:28 46.35029 -114.84792 34969 ft 521 kts 115°
2026-05-05 18:28 46.31016 -114.76073 34977 ft 519 kts 115°
2026-05-05 18:29 46.27007 -114.67397 34980 ft 519 kts 115°
2026-05-05 18:29 46.23000 -114.58735 34983 ft 519 kts 115°
2026-05-05 18:30 46.18974 -114.50062 34983 ft 520 kts 115°
2026-05-05 18:30 46.14934 -114.41385 34980 ft 522 kts 116°
2026-05-05 18:31 46.10884 -114.32722 35048 ft 521 kts 116°
2026-05-05 18:31 46.06818 -114.24046 35014 ft 522 kts 116°
2026-05-05 18:32 46.02744 -114.15380 35024 ft 523 kts 116°
2026-05-05 18:32 45.98661 -114.06718 35004 ft 523 kts 116°
2026-05-05 18:33 45.94568 -113.98068 34986 ft 523 kts 116°
2026-05-05 18:33 45.90471 -113.89435 34967 ft 522 kts 116°
2026-05-05 18:34 45.86376 -113.80837 34978 ft 522 kts 116°
2026-05-05 18:34 45.82272 -113.72234 34973 ft 522 kts 116°
2026-05-05 18:35 45.78162 -113.63654 34965 ft 522 kts 116°
2026-05-05 18:35 45.74046 -113.55089 34945 ft 522 kts 116°
2026-05-05 18:36 45.69961 -113.46607 34950 ft 521 kts 116°
2026-05-05 18:36 45.65817 -113.38030 34954 ft 520 kts 116°
2026-05-05 18:37 45.61724 -113.29583 34938 ft 521 kts 116°
2026-05-05 18:37 45.57596 -113.21088 34986 ft 522 kts 116°
2026-05-05 18:38 45.53451 -113.12589 34963 ft 522 kts 116°
2026-05-05 18:38 45.49299 -113.04098 34962 ft 522 kts 116°
2026-05-05 18:39 45.45141 -112.95624 34993 ft 522 kts 116°
2026-05-05 18:39 45.40968 -112.87140 35002 ft 523 kts 116°
2026-05-05 18:40 45.36783 -112.78656 35004 ft 524 kts 117°
2026-05-05 18:40 45.32586 -112.70172 35019 ft 524 kts 117°
2026-05-05 18:41 45.28392 -112.61717 35023 ft 523 kts 117°
2026-05-05 18:41 45.24113 -112.53370 35036 ft 526 kts 122°
2026-05-05 18:42 45.19158 -112.45602 34992 ft 532 kts 126°
2026-05-05 18:42 45.14091 -112.37916 34966 ft 533 kts 126°
2026-05-05 18:43 45.09046 -112.30229 34999 ft 532 kts 126°
2026-05-05 18:43 45.04034 -112.22543 34979 ft 532 kts 125°
2026-05-05 18:44 44.99024 -112.14855 34997 ft 531 kts 125°
2026-05-05 18:44 44.94016 -112.07193 34992 ft 531 kts 126°
2026-05-05 18:45 44.89003 -111.99548 34994 ft 530 kts 126°
2026-05-05 18:45 44.83990 -111.91934 34989 ft 530 kts 126°
2026-05-05 18:46 44.78973 -111.84332 34966 ft 530 kts 126°
2026-05-05 18:46 44.73953 -111.76749 34994 ft 529 kts 126°
2026-05-05 18:47 44.68921 -111.69167 34969 ft 531 kts 126°
2026-05-05 18:47 44.63879 -111.61588 34966 ft 532 kts 126°
2026-05-05 18:48 44.58814 -111.53996 34974 ft 533 kts 126°
2026-05-05 18:48 44.53727 -111.46393 34949 ft 535 kts 126°
2026-05-05 18:49 44.48636 -111.38807 34958 ft 534 kts 126°
2026-05-05 18:49 44.43547 -111.31242 34951 ft 533 kts 126°
2026-05-05 18:50 44.38462 -111.23704 34933 ft 533 kts 127°
2026-05-05 18:50 44.33364 -111.16171 34926 ft 533 kts 127°
2026-05-05 18:51 44.28266 -111.08651 34914 ft 533 kts 127°
2026-05-05 18:51 44.23172 -111.01157 34912 ft 532 kts 127°
2026-05-05 18:52 44.18112 -110.93738 34911 ft 531 kts 127°
2026-05-05 18:52 44.12992 -110.86248 34921 ft 531 kts 127°
2026-05-05 18:53 44.07894 -110.78809 34951 ft 532 kts 127°
2026-05-05 18:53 44.02809 -110.71408 34909 ft 533 kts 127°
2026-05-05 18:54 43.97676 -110.63959 34899 ft 535 kts 127°
2026-05-05 18:54 43.92524 -110.56507 34901 ft 535 kts 127°
2026-05-05 18:55 43.87362 -110.49056 34883 ft 536 kts 128°
2026-05-05 18:55 43.82182 -110.41601 34879 ft 537 kts 128°
2026-05-05 18:56 43.76991 -110.34150 34866 ft 539 kts 128°
2026-05-05 18:56 43.71745 -110.26641 34875 ft 539 kts 128°
2026-05-05 18:57 43.66567 -110.19245 34862 ft 539 kts 128°
2026-05-05 18:57 43.61351 -110.11818 34845 ft 539 kts 128°
2026-05-05 18:58 43.56134 -110.04407 34901 ft 538 kts 129°
2026-05-05 18:58 43.50913 -109.97009 34951 ft 539 kts 129°
2026-05-05 18:59 43.45664 -109.89592 34950 ft 541 kts 130°
2026-05-05 18:59 43.40410 -109.82187 34954 ft 541 kts 130°
2026-05-05 19:00 43.35149 -109.74797 34935 ft 540 kts 130°
2026-05-05 19:00 43.29892 -109.67431 34911 ft 540 kts 130°
2026-05-05 19:01 43.24644 -109.60098 34900 ft 536 kts 131°
2026-05-05 19:01 43.19434 -109.52833 34911 ft 533 kts 131°
2026-05-05 19:02 43.14238 -109.45602 34965 ft 532 kts 131°
2026-05-05 19:02 43.09047 -109.38398 34960 ft 531 kts 132°
2026-05-05 19:03 43.03861 -109.31218 34971 ft 531 kts 132°
2026-05-05 19:03 42.98663 -109.24048 34977 ft 531 kts 132°
2026-05-05 19:04 42.94338 -109.18095 34963 ft 531 kts 132°
2026-05-05 19:04 42.89139 -109.10950 35020 ft 530 kts 133°
2026-05-05 19:05 42.83933 -109.03816 34994 ft 530 kts 134°
2026-05-05 19:05 42.78731 -108.96711 34975 ft 529 kts 134°
2026-05-05 19:06 42.73542 -108.89638 34976 ft 527 kts 134°
2026-05-05 19:06 42.68364 -108.82590 34968 ft 526 kts 134°
2026-05-05 19:07 42.63191 -108.75572 34985 ft 525 kts 135°
2026-05-05 19:07 42.58025 -108.68583 34994 ft 524 kts 135°
2026-05-05 19:08 42.52858 -108.61608 34969 ft 524 kts 135°
2026-05-05 19:08 42.47698 -108.54663 34923 ft 522 kts 135°
2026-05-05 19:09 42.42547 -108.47749 34935 ft 521 kts 135°
2026-05-05 19:09 42.37407 -108.40859 34965 ft 520 kts 137°
2026-05-05 19:10 42.32267 -108.33982 34908 ft 519 kts 137°
2026-05-05 19:10 42.27135 -108.27141 34921 ft 518 kts 137°
2026-05-05 19:11 42.22015 -108.20330 34929 ft 516 kts 137°
2026-05-05 19:11 42.16895 -108.13540 34906 ft 516 kts 137°
2026-05-05 19:12 42.11788 -108.06778 34923 ft 514 kts 137°
2026-05-05 19:12 42.06718 -108.00080 34928 ft 514 kts 137°
2026-05-05 19:13 42.01613 -107.93356 34922 ft 514 kts 137°
2026-05-05 19:13 41.96512 -107.86648 34919 ft 512 kts 138°
2026-05-05 19:14 41.91411 -107.79959 34917 ft 512 kts 138°
2026-05-05 19:14 41.86317 -107.73290 34942 ft 511 kts 139°
2026-05-05 19:15 41.81227 -107.66637 34917 ft 510 kts 138°
2026-05-05 19:15 41.76397 -107.59655 34929 ft 510 kts 134°
2026-05-05 19:16 41.71727 -107.52510 34937 ft 509 kts 134°
2026-05-05 19:16 41.67034 -107.45429 34919 ft 508 kts 135°
2026-05-05 19:17 41.62315 -107.38420 34965 ft 506 kts 136°
2026-05-05 19:17 41.57597 -107.31446 34954 ft 506 kts 136°
2026-05-05 19:18 41.52883 -107.24487 34933 ft 505 kts 136°
2026-05-05 19:18 41.48166 -107.17533 34914 ft 505 kts 136°
2026-05-05 19:19 41.43475 -107.10636 34909 ft 506 kts 136°
2026-05-05 19:19 41.38743 -107.03693 34921 ft 506 kts 136°
2026-05-05 19:20 41.34003 -106.96750 34870 ft 507 kts 136°
2026-05-05 19:20 41.29249 -106.89797 34881 ft 507 kts 136°
2026-05-05 19:21 41.24497 -106.82865 34936 ft 508 kts 136°
2026-05-05 19:21 41.19733 -106.75935 34919 ft 508 kts 137°
2026-05-05 19:22 41.14968 -106.69021 34905 ft 507 kts 137°
2026-05-05 19:22 41.10211 -106.62132 34895 ft 506 kts 137°
2026-05-05 19:23 41.05457 -106.55261 34888 ft 504 kts 137°
2026-05-05 19:23 41.03099 -106.51851 34735 ft 502 kts 137°
2026-05-05 19:23 41.00742 -106.48428 34258 ft 502 kts 137°
2026-05-05 19:24 40.98392 -106.45055 33773 ft 495 kts 137°
2026-05-05 19:24 40.96064 -106.41725 33240 ft 491 kts 137°
2026-05-05 19:24 40.93760 -106.38437 32756 ft 484 kts 137°
2026-05-05 19:24 40.91486 -106.35185 32279 ft 480 kts 135°
2026-05-05 19:25 40.89269 -106.31936 31845 ft 473 kts 137°
2026-05-05 19:25 40.87051 -106.28766 31375 ft 468 kts 138°
2026-05-05 19:25 40.84870 -106.25578 30911 ft 467 kts 133°
2026-05-05 19:25 40.83138 -106.21956 30441 ft 465 kts 119°
2026-05-05 19:26 40.81795 -106.18115 30069 ft 459 kts 117°
2026-05-05 19:26 40.80526 -106.14266 29564 ft 455 kts 117°
2026-05-05 19:26 40.79255 -106.10458 29070 ft 451 kts 117°
2026-05-05 19:26 40.77970 -106.06714 28632 ft 445 kts 118°
2026-05-05 19:27 40.76678 -106.03030 28217 ft 440 kts 118°
2026-05-05 19:27 40.75380 -105.99389 27782 ft 436 kts 119°
2026-05-05 19:27 40.74092 -105.95784 27357 ft 432 kts 119°
2026-05-05 19:27 40.72834 -105.92264 26936 ft 429 kts 119°
2026-05-05 19:28 40.71564 -105.88722 26525 ft 426 kts 119°
2026-05-05 19:28 40.70299 -105.85202 26121 ft 423 kts 119°
2026-05-05 19:28 40.69048 -105.81703 25722 ft 420 kts 119°
2026-05-05 19:28 40.67797 -105.78233 25322 ft 418 kts 118°
2026-05-05 19:29 40.66558 -105.74789 24945 ft 415 kts 118°
2026-05-05 19:29 40.65319 -105.71345 24556 ft 417 kts 118°
2026-05-05 19:29 40.64067 -105.67878 24162 ft 422 kts 118°
2026-05-05 19:29 40.62797 -105.64372 23735 ft 426 kts 118°
2026-05-05 19:30 40.61524 -105.60859 23331 ft 424 kts 118°
2026-05-05 19:30 40.60262 -105.57367 22885 ft 422 kts 118°
2026-05-05 19:30 40.59001 -105.53884 22449 ft 420 kts 118°
2026-05-05 19:30 40.57741 -105.50423 22032 ft 420 kts 118°
2026-05-05 19:31 40.56484 -105.46959 21625 ft 418 kts 118°
2026-05-05 19:31 40.55240 -105.43535 21394 ft 410 kts 118°
2026-05-05 19:31 40.54019 -105.40182 21110 ft 405 kts 118°
2026-05-05 19:31 40.52802 -105.36860 20705 ft 402 kts 118°
2026-05-05 19:32 40.51597 -105.33559 20327 ft 399 kts 118°
2026-05-05 19:32 40.50399 -105.30276 19964 ft 397 kts 118°
2026-05-05 19:32 40.49204 -105.27007 19590 ft 397 kts 118°
2026-05-05 19:32 40.48010 -105.23753 19308 ft 392 kts 118°
2026-05-05 19:33 40.46837 -105.20556 19164 ft 385 kts 119°
2026-05-05 19:33 40.45445 -105.17663 18961 ft 366 kts 139°
2026-05-05 19:33 40.43509 -105.15650 18825 ft 347 kts 151°
2026-05-05 19:33 40.41536 -105.13876 18655 ft 342 kts 151°
2026-05-05 19:34 40.39585 -105.12095 18505 ft 343 kts 150°
2026-05-05 19:34 40.37626 -105.10295 18343 ft 346 kts 150°
2026-05-05 19:34 40.35646 -105.08469 18165 ft 349 kts 150°
2026-05-05 19:35 40.31729 -105.04838 17786 ft 339 kts 150°
2026-05-05 19:35 40.29818 -105.03067 17612 ft 334 kts 150°
2026-05-05 19:35 40.27936 -105.01323 17459 ft 330 kts 150°
2026-05-05 19:35 40.26067 -104.99592 17265 ft 329 kts 150°
2026-05-05 19:36 40.24192 -104.97864 17120 ft 331 kts 150°
2026-05-05 19:36 40.22301 -104.96117 16928 ft 334 kts 150°
2026-05-05 19:36 40.20389 -104.94349 16626 ft 337 kts 150°
2026-05-05 19:36 40.18480 -104.92596 16335 ft 333 kts 152°
2026-05-05 19:37 40.16478 -104.91173 16025 ft 324 kts 162°
2026-05-05 19:37 40.14424 -104.90063 15731 ft 319 kts 164°
2026-05-05 19:37 40.12371 -104.89003 15453 ft 316 kts 163°
2026-05-05 19:37 40.10336 -104.87918 15164 ft 314 kts 163°
2026-05-05 19:38 40.08328 -104.86808 14890 ft 313 kts 162°
2026-05-05 19:38 40.06333 -104.85689 14630 ft 311 kts 162°
2026-05-05 19:38 40.04350 -104.84573 14361 ft 309 kts 162°
2026-05-05 19:38 40.02380 -104.83449 14071 ft 308 kts 162°
2026-05-05 19:39 40.00423 -104.82330 13822 ft 306 kts 162°
2026-05-05 19:39 39.98473 -104.81217 13525 ft 306 kts 162°
2026-05-05 19:39 39.96504 -104.80372 13218 ft 291 kts 180°
2026-05-05 19:39 39.94513 -104.80384 12979 ft 288 kts 187°
2026-05-05 19:40 39.92482 -104.80488 12739 ft 296 kts 185°
2026-05-05 19:40 39.90415 -104.80567 12471 ft 297 kts 185°
2026-05-05 19:40 39.88356 -104.80637 12191 ft 295 kts 184°
2026-05-05 19:40 39.86324 -104.80697 11929 ft 290 kts 184°
2026-05-05 19:41 39.84354 -104.80748 11683 ft 284 kts 184°
2026-05-05 19:41 39.82396 -104.80801 11430 ft 279 kts 183°
2026-05-05 19:41 39.80446 -104.80854 11158 ft 273 kts 182°
2026-05-05 19:41 39.78580 -104.80902 11059 ft 262 kts 183°
2026-05-05 19:42 39.76801 -104.80975 10987 ft 249 kts 183°
2026-05-05 19:42 39.75115 -104.81048 10961 ft 236 kts 183°
2026-05-05 19:42 39.73504 -104.81118 10903 ft 238 kts 183°
2026-05-05 19:42 39.71808 -104.81199 10666 ft 241 kts 183°
2026-05-05 19:43 39.70169 -104.81298 10411 ft 236 kts 183°
2026-05-05 19:43 39.68541 -104.81419 10242 ft 226 kts 183°
2026-05-05 19:43 39.66995 -104.81544 10094 ft 220 kts 183°
2026-05-05 19:43 39.65471 -104.81682 9984 ft 221 kts 183°
2026-05-05 19:44 39.63924 -104.81831 9894 ft 226 kts 183°
2026-05-05 19:44 39.62347 -104.81990 9785 ft 229 kts 183°
2026-05-05 19:44 39.60764 -104.82147 9652 ft 225 kts 180°
2026-05-05 19:44 39.59303 -104.81674 9619 ft 219 kts 142°
2026-05-05 19:45 39.58467 -104.80029 9716 ft 231 kts 107°
2026-05-05 19:45 39.58420 -104.77892 9637 ft 244 kts 86°
2026-05-05 19:45 39.58851 -104.75766 9504 ft 246 kts 67°
2026-05-05 19:45 39.59779 -104.73911 9407 ft 244 kts 57°
2026-05-05 19:46 39.60803 -104.72162 9288 ft 242 kts 57°
2026-05-05 19:46 39.61810 -104.70416 9212 ft 241 kts 57°
2026-05-05 19:46 39.62803 -104.68663 9092 ft 241 kts 57°
2026-05-05 19:46 39.63879 -104.67042 8971 ft 242 kts 39°
2026-05-05 19:47 39.65466 -104.66244 8694 ft 252 kts
2026-05-05 19:47 39.67228 -104.66209 8402 ft 254 kts
2026-05-05 19:47 39.68988 -104.66218 8066 ft 252 kts
2026-05-05 19:47 39.70720 -104.66201 7721 ft 244 kts
2026-05-05 19:48 39.72357 -104.66184 7412 ft 227 kts
2026-05-05 19:48 39.73870 -104.66165 7142 ft 207 kts
2026-05-05 19:48 39.75226 -104.66150 7058 ft 182 kts
2026-05-05 19:48 39.76454 -104.66132 6810 ft 170 kts
2026-05-05 19:49 39.77606 -104.66119 6618 ft 163 kts
2026-05-05 19:49 39.78347 -104.66112 6469 ft 159 kts
2026-05-05 19:49 39.79839 -104.66091 6132 ft 162 kts
2026-05-05 19:49 39.80954 -104.66078 5915 ft 159 kts
2026-05-05 19:50 39.82029 -104.66075 5682 ft 151 kts
2026-05-05 19:50 39.83065 -104.66067 5455 ft 147 kts
2026-05-05 19:50 39.83982 -104.66043 5420 ft 109 kts
2026-05-05 19:50 39.84556 -104.66035 5407 ft 56 kts 359°
2026-05-05 19:51 39.84828 -104.66103 5406 ft 39 kts 338°
2026-05-05 19:51 39.84902 -104.66213 5413 ft 13 kts 244°
2026-05-05 19:51 39.84824 -104.66244 5405 ft 8 kts 183°
2026-05-05 19:51 39.84752 -104.66244 5398 ft 12 kts 181°
2026-05-05 19:52 39.84697 -104.66245 5396 ft 12 kts 181°
2026-05-05 19:52 39.84616 -104.66245 5409 ft 12 kts 179°
2026-05-05 19:52 39.84532 -104.66249 5406 ft 14 kts 181°
2026-05-05 19:52 39.84407 -104.66251 5406 ft 22 kts 180°
2026-05-05 19:53 39.84239 -104.66250 5411 ft 27 kts 179°
2026-05-05 19:53 39.84034 -104.66254 5416 ft 32 kts 180°
2026-05-05 19:53 39.83796 -104.66253 5419 ft 37 kts 180°
2026-05-05 19:53 39.83549 -104.66261 5420 ft 31 kts 180°
2026-05-05 19:54 39.83341 -104.66262 5435 ft 28 kts 180°
2026-05-05 19:54 39.83166 -104.66262 5437 ft 20 kts 180°
2026-05-05 19:54 39.83050 -104.66265 5437 ft 16 kts 180°
2026-05-05 19:54 39.82999 -104.66265 5441 ft 0 kts 180°
2026-05-05 19:57 39.82998 -104.66265 5441 ft 1 kts 180°
2026-05-05 19:57 39.82968 -104.66266 5438 ft 9 kts 181°
2026-05-05 19:57 39.82889 -104.66272 5440 ft 12 kts 194°
2026-05-05 19:57 39.82845 -104.66361 5440 ft 15 kts 266°
2026-05-05 19:58 39.82843 -104.66554 5420 ft 27 kts 269°
2026-05-05 19:58 39.82846 -104.66851 5418 ft 36 kts 270°
2026-05-05 19:58 39.82858 -104.67068 5398 ft 16 kts 296°
2026-05-05 19:58 39.82938 -104.67148 5394 ft 14 kts 316°
2026-05-05 19:59 39.82993 -104.67252 5398 ft 10 kts 301°
2026-05-05 19:59 39.83002 -104.67289 5398 ft 0 kts 282°
2026-05-05 19:59 39.83004 -104.67308 5397 ft 6 kts 280°
2026-05-05 19:59 39.83021 -104.67332 5397 ft 5 kts 330°
2026-05-05 20:00 39.83060 -104.67343 5386 ft 3 kts 356°
2026-05-05 20:00 39.83084 -104.67343 5395 ft 4 kts 359°
2026-05-05 20:00 39.83095 -104.67344 5394 ft 0 kts 359°